Find Iridium Next SV159

NORAD ID: 43578 Int'l Des: 2018-061 Owner: IRIDS Country: US Constellation: Iridium NEXT operational
LEOCIRCULARPOLAR

当前视图

正在加载3D地球...

关于 Iridium Next SV159

正在加载描述...

即将过境

Passes for default location (London). Set your location on the main map for personalized predictions.

高度历史

Loading altitude history...

两行轨道根数

1 43578U 18061K 26146.29891726 .00000019 00000-0 -41189-6 0 9996
2 43578 86.3967 65.8572 0002294 86.8746 273.2712 14.34217856410243
Epoch: May 26, 2026 • Age: 13 hours

当前状态

高度 806.2 km
速度 7.45 km/s
星下点 -72.92°S, 71.91°E
发射日期 Jul 25, 2018
运行时间 7.8 years
类型 communications

技术详情

分类 Payload
质量 860.00 kg
干质量 700.00 kg
总质量 860.00 kg
长度 3.10 m
直径 1.50 m
跨度 9.40 m
形状 Half Hex Prism+2 pan
制造商 NGISGA
平台类型 EliteBus
阶段状态 In Orbit
所有者/国家 IRIDS/US

Most Searched